Theta_e
317 315 316 316 314 315 316 316 316 316 317 318 321 323 323 324 324 319 328 329 330 331 333 332 333 328 325 322 322 325 329 325 320 320 324 318 317 319 320 319 319 318 316 315
316 319 317 315 314 316 316 319 319 318 318 322 322 322 321 323 325 326 323 329 329 330 331 331 330 327 325 326 327 330 326 321 324 322 322 318 320 320 319 319 318 316 316 315
319 321 318 319 318 319 319 320 320 320 318 317 318 320 321 322 326 328 326 325 330 330 330 330 329 328 327 328 329 328 325 323 322 322 321 321 319 318 317 317 316 315 314 313
319 320 320 319 321 319 321 320 320 320 320 321 317 317 319 319 325 328 330 331 331 330 330 330 330 329 329 330 323 321 322 323 323 322 321 320 318 317 317 316 315 314 313 312
322 321 320 320 321 320 321 319 321 321 318 318 318 318 318 321 325 328 329 331 331 331 331 330 329 329 330 325 324 324 325 324 323 322 321 319 318 317 316 316 315 314 312 310
322 323 321 322 321 320 319 320 317 315 315 320 320 321 320 322 324 329 330 330 331 330 330 329 330 330 327 327 325 326 325 324 323 322 319 318 318 317 317 315 314 312 310 308
322 323 321 322 321 319 317 316 319 321 320 321 320 324 322 322 323 328 329 330 331 331 330 328 327 325 323 322 322 323 323 322 321 318 316 316 315 313 312 312 310 308 306 306
323 324 322 322 322 322 320 316 318 324 322 320 320 325 321 324 328 329 329 327 326 327 326 322 318 318 317 318 317 316 316 315 312 310 311 311 311 309 308 306 305 305 306 305
322 324 321 323 324 320 321 319 316 317 318 320 320 324 320 322 322 324 316 317 316 316 315 314 313 313 313 312 311 310 309 307 306 306 305 306 306 305 305 305 306 306 305 305
321 322 321 323 323 321 322 318 322 318 325 325 321 325 323 321 316 314 311 311 312 312 312 312 312 312 313 313 311 309 307 306 305 305 305 305 305 305 305 305 305 305 305 306
320 319 320 321 322 323 320 321 320 318 319 323 324 322 319 317 312 311 310 312 311 311 312 313 315 316 313 310 308 306 305 304 304 304 305 304 305 305 306 306 306 306 305 306
320 318 321 322 320 320 321 322 319 321 323 319 318 319 312 312 311 311 311 312 311 310 311 314 313 311 309 307 306 305 305 304 304 305 305 305 306 306 306 306 305 306 305 305
318 316 317 320 315 316 323 322 321 318 315 320 320 320 313 311 311 311 311 311 311 313 315 310 309 308 307 306 305 305 304 304 305 305 305 305 306 306 306 305 305 306 306 305
317 314 316 321 319 317 324 323 321 320 319 320 318 319 315 314 312 311 311 311 313 310 309 309 308 307 306 305 305 304 304 305 305 305 305 305 306 305 305 306 306 306 306 306
316 320 319 319 319 322 323 320 320 320 317 319 319 320 317 314 314 314 313 312 311 313 310 308 307 306 305 305 304 304 305 305 305 305 305 305 305 305 305 306 306 306 306 307
315 321 323 323 322 321 322 318 319 317 318 316 316 317 314 314 314 313 313 313 313 310 309 307 306 306 305 304 305 305 305 305 305 305 305 305 305 304 305 305 306 306 306 306
317 317 317 320 319 319 318 319 317 317 317 316 317 315 315 315 315 314 313 312 310 309 307 306 305 304 304 305 305 305 305 305 305 305 304 304 304 304 304 304 305 304 305 305
315 315 314 315 316 318 319 318 317 317 317 316 316 316 316 315 315 316 311 310 309 308 306 305 304 304 304 305 305 305 305 305 305 305 305 304 303 304 304 304 304 303 303 304
314 314 314 315 314 321 322 322 320 320 318 317 317 317 316 315 312 312 310 309 308 306 304 304 304 305 305 304 304 304 304 304 304 304 304 304 304 305 304 304 304 303 303 304
318 315 319 321 325 326 322 320 319 320 318 316 315 315 313 313 311 307 309 308 306 304 305 304 305 303 303 303 304 305 305 303 303 303 304 304 305 305 305 304 303 302 301 301
319 318 322 323 322 324 321 320 319 317 314 317 315 312 311 309 309 308 307 306 304 304 304 304 303 304 304 305 305 304 304 303 303 303 303 304 305 304 304 303 302 301 301 301
320 324 323 322 323 322 318 317 318 313 313 312 311 310 309 308 307 306 305 304 304 304 304 303 304 305 304 305 304 303 302 302 303 303 303 304 304 304 304 302 301 301 300 301
320 318 317 317 316 314 315 315 314 313 313 311 310 308 306 305 305 304 304 305 303 303 304 305 305 304 303 303 304 302 303 303 303 303 303 304 304 303 302 301 300 300 300 300
317 315 313 311 314 313 313 313 312 312 311 309 306 306 305 304 304 303 303 303 304 305 305 305 305 305 303 302 303 302 302 303 303 303 303 302 301 301 300 300 300 299 300 300
314 313 313 313 313 312 312 312 312 311 309 306 305 305 305 305 302 302 304 306 306 306 305 304 304 303 302 302 302 302 303 303 303 303 301 301 301 301 300 300 299 300 300 299
314 311 312 312 315 313 312 311 311 309 307 306 305 305 305 303 302 305 306 306 307 305 304 303 302 302 301 301 302 303 303 303 303 302 301 301 301 300 300 300 300 300 300 300
Wind_Speed
4 5 3 7 5 4 2 1 2 4 5 6 4 6 11 16 16 8 12 12 17 23 26 27 28 30 28 23 18 9 3 6 7 7 5 17 14 14 16 18 24 26 24 25
6 4 5 4 4 4 3 3 4 4 5 6 2 7 5 15 12 10 3 21 25 25 24 24 25 29 25 20 12 2 2 5 5 12 11 18 16 17 18 23 25 25 26 27
4 4 2 5 4 6 2 3 2 4 4 5 3 4 6 5 17 19 12 13 18 24 25 25 28 27 22 15 7 6 5 10 15 10 15 17 17 21 21 24 24 24 25 27
2 5 3 6 3 3 2 2 2 3 3 2 3 4 5 7 9 14 15 13 14 18 21 25 26 23 21 11 5 23 18 18 10 11 17 17 20 23 25 26 25 24 26 30
4 6 5 6 3 0 3 3 2 2 2 3 7 4 5 4 5 5 7 12 14 15 20 24 24 18 14 6 11 10 11 16 16 14 19 21 23 26 27 26 27 28 30 30
2 4 4 1 1 3 3 1 5 4 2 2 3 4 4 2 1 2 4 9 15 18 18 16 15 12 7 7 9 13 14 15 14 17 21 23 26 28 28 27 28 31 33 31
5 3 5 3 5 5 9 7 4 5 5 4 4 2 6 4 4 4 9 12 14 16 17 12 5 1 4 3 5 6 7 10 13 20 22 23 23 23 25 29 32 32 29 22
1 5 4 6 2 4 3 6 5 5 3 5 3 4 4 3 10 14 15 13 12 13 10 11 14 13 11 9 5 5 8 13 19 23 23 24 25 27 27 28 24 19 15 14
2 4 5 3 3 1 2 2 1 5 3 2 3 2 2 5 7 12 12 13 14 18 20 17 13 11 9 9 11 15 18 20 21 23 22 22 22 21 19 15 14 13 12 13
2 2 2 6 5 5 3 2 3 4 1 4 4 4 5 5 5 6 11 18 21 20 18 14 9 7 12 16 19 21 22 20 17 15 15 14 14 12 11 11 12 12 12 13
2 3 6 3 4 2 5 5 4 3 3 3 3 5 3 6 6 9 14 20 19 15 11 7 6 10 13 17 20 21 19 16 13 12 10 9 9 11 12 13 13 14 13 14
1 4 2 5 3 3 2 3 4 4 5 1 2 6 5 6 15 20 20 19 12 8 6 9 8 9 16 20 21 20 17 12 10 7 8 10 10 12 12 12 11 12 13 13
3 2 3 8 6 5 4 2 3 3 3 4 2 5 4 10 13 11 17 13 7 2 6 6 12 15 19 19 17 14 11 8 7 9 11 10 10 11 13 14 12 13 12 12
3 3 6 5 7 3 4 5 3 4 2 3 6 4 1 6 6 10 8 7 1 3 6 11 15 18 19 18 14 12 5 8 9 10 9 11 11 14 16 13 11 12 12 12
4 2 3 4 5 2 4 5 5 2 3 3 6 1 3 4 6 8 6 3 3 7 9 13 19 21 19 15 8 7 8 10 10 9 9 11 12 14 15 12 13 14 13 12
3 1 1 3 2 5 1 6 3 4 3 3 5 5 1 7 8 7 10 13 7 3 7 16 21 21 15 8 8 11 12 11 9 7 10 13 14 16 16 14 15 15 14 11
2 5 3 4 3 3 3 4 4 3 6 2 4 3 1 2 3 3 6 6 2 7 14 20 20 13 7 9 10 11 11 10 8 7 11 12 14 17 18 16 15 15 15 13
6 5 2 3 4 1 0 5 8 7 4 3 4 3 2 4 6 8 5 3 6 11 18 19 10 6 7 9 10 10 10 9 10 11 11 12 14 16 17 18 17 18 17 15
3 4 3 3 1 2 3 2 2 0 3 2 1 5 6 6 5 6 5 5 10 16 17 10 7 9 9 10 11 13 13 14 15 16 16 15 14 15 16 18 19 20 16 16
5 5 4 2 2 2 2 3 7 5 4 7 3 6 9 2 2 3 5 7 13 14 10 3 7 9 9 12 15 14 16 19 19 20 19 15 13 14 15 18 19 19 19 17
4 4 3 3 3 4 3 5 5 3 4 2 2 3 3 1 5 5 4 9 10 7 5 6 8 10 13 15 15 14 16 19 20 19 17 12 10 12 15 17 19 19 17 13
2 2 1 1 1 3 2 2 2 2 3 3 2 4 5 4 3 4 6 6 6 6 8 10 11 12 13 14 17 18 17 17 19 16 16 13 13 12 12 16 18 18 13 12
1 4 3 5 4 2 3 1 5 3 4 2 5 6 6 5 5 6 7 5 6 8 9 11 13 14 11 15 16 19 19 19 16 15 13 13 11 13 17 16 15 17 15 15
0 2 2 3 1 1 5 8 6 5 4 4 5 6 6 5 6 6 8 9 8 9 10 12 15 14 15 16 13 16 19 17 14 11 13 11 13 15 15 16 16 14 16 21
2 4 3 2 1 4 6 5 5 4 4 5 7 6 6 6 8 10 10 9 9 10 13 14 14 13 16 13 13 17 18 16 13 11 12 13 16 13 14 15 14 13 15 18
4 6 4 5 8 4 6 11 6 2 4 5 7 4 6 7 11 10 9 9 11 14 15 13 13 15 16 15 16 17 17 16 14 12 14 12 12 13 12 12 13 16 18 19
Wind_Direction
4 54 288 275 188 172 194 144 290 283 348 79 4 41 15 20 52 78 190 190 189 198 203 205 203 178 174 170 175 160 284 221 229 261 288 275 274 279 293 311 320 321 322 322
23 5 285 245 136 103 93 74 333 299 8 90 337 38 341 35 23 356 202 183 200 199 200 200 183 175 172 173 162 313 111 194 283 285 293 261 277 297 308 312 320 318 314 312
113 277 7 80 66 77 41 122 276 239 3 38 3 348 357 10 28 34 46 195 186 182 180 173 169 168 165 163 202 94 8 312 273 279 266 281 293 300 301 312 311 305 307 313
271 352 34 51 87 128 12 261 322 304 52 274 19 267 335 354 8 26 56 105 142 160 169 168 169 169 171 155 355 323 263 285 261 254 264 279 290 292 301 306 304 305 309 311
288 0 42 55 350 327 236 47 52 9 91 56 345 80 263 1 9 1 19 115 141 166 176 170 171 177 175 221 293 311 253 269 251 260 272 282 288 293 296 299 299 299 301 309
43 336 56 295 10 26 18 52 45 54 92 43 288 114 284 302 195 167 78 116 132 146 155 153 164 181 223 260 289 253 248 255 263 273 281 289 294 289 290 290 295 301 308 313
347 355 322 28 28 9 41 44 338 348 2 230 310 55 243 294 13 152 138 127 124 128 130 127 107 273 267 254 229 235 253 268 282 288 293 288 286 289 297 303 307 310 312 323
75 328 18 340 131 235 284 147 163 248 219 263 330 249 255 57 97 120 122 114 113 119 121 110 109 108 99 86 52 11 332 305 291 289 288 289 293 298 305 311 315 319 327 328
54 306 318 47 316 45 335 254 177 110 29 39 260 294 353 89 83 107 103 116 109 113 112 106 93 71 43 11 355 334 320 311 302 297 297 301 306 312 319 321 325 334 330 331
164 344 339 305 16 34 65 164 360 10 252 270 291 279 232 182 163 119 108 117 124 119 114 106 85 34 354 333 336 331 324 316 310 311 314 325 333 341 343 340 331 329 331 331
89 98 293 5 35 339 358 11 29 115 122 199 290 265 216 225 169 141 126 134 128 123 113 94 25 330 321 329 332 332 336 333 333 337 341 355 354 345 339 333 331 331 333 326
357 131 287 266 300 232 68 118 112 106 297 213 179 267 336 161 146 142 143 145 136 116 67 2 349 343 335 340 344 342 341 340 345 2 351 343 343 343 344 340 339 337 336 331
181 26 17 348 355 3 51 354 125 117 87 227 167 277 47 95 106 125 138 137 130 59 332 325 343 346 345 338 335 335 338 351 359 350 348 352 350 349 345 340 336 337 337 338
96 119 151 190 229 207 305 317 344 141 154 240 234 249 135 53 79 111 134 135 65 325 336 326 334 341 341 340 335 338 356 355 352 352 2 358 352 350 349 352 348 341 337 338
97 188 191 259 262 271 259 338 330 102 285 188 322 70 105 131 130 147 171 183 209 294 294 325 338 339 335 334 346 3 350 343 347 353 354 357 355 348 351 353 353 351 347 346
10 231 165 278 15 14 38 7 71 38 5 66 33 44 97 118 135 153 184 222 244 277 318 334 335 331 336 358 359 353 349 344 343 350 0 360 359 357 356 351 351 351 350 347
159 140 107 262 350 337 13 16 72 77 31 30 49 328 338 132 157 244 276 254 291 342 341 335 333 339 10 1 356 354 356 357 357 353 351 350 347 357 3 359 351 346 348 344
152 118 106 236 9 334 251 29 94 98 60 74 77 63 274 263 297 288 274 314 347 339 333 336 351 5 357 358 357 353 350 348 344 337 333 342 348 346 353 346 342 345 340 335
111 110 80 125 138 345 260 25 321 205 251 216 300 326 305 308 323 293 305 336 339 334 334 343 356 358 359 355 349 345 341 335 332 329 333 337 330 336 335 340 343 345 341 335
60 82 110 85 85 262 282 294 347 203 301 207 324 324 332 304 322 283 325 323 331 335 335 18 359 356 352 346 342 342 344 339 333 326 319 322 324 324 332 344 346 345 340 336
11 7 66 106 227 249 242 231 326 108 250 214 291 334 348 281 270 316 311 330 341 7 44 7 357 353 346 342 354 344 343 348 348 352 359 333 315 327 341 347 345 344 346 351
114 40 217 93 235 305 360 290 235 195 130 131 34 356 345 334 328 328 328 352 24 41 20 8 356 351 343 339 343 346 345 349 345 349 349 347 332 331 344 343 343 348 349 354
61 186 198 174 223 271 303 278 118 91 99 26 357 345 338 350 355 343 346 34 61 36 13 2 2 356 2 356 351 359 352 346 341 343 347 346 354 349 349 347 348 358 4 4
86 146 136 65 199 153 127 136 118 93 66 41 11 359 360 21 47 55 73 77 52 16 11 356 345 344 348 346 356 356 348 344 348 348 355 358 347 344 346 353 360 9 19 42
195 144 141 279 226 173 196 167 139 99 55 34 16 26 67 60 91 90 83 56 33 12 358 359 4 359 0 2 348 352 352 357 352 350 355 350 347 355 3 6 13 36 43 32
186 179 166 224 215 171 183 173 155 79 46 24 14 78 91 92 104 90 60 43 18 14 359 4 4 6 2 353 348 349 350 350 347 341 342 353 5 3 18 43 45 65 65 47